Location: Bellerive
(46.9237°N, 7.0223°E)
Time: 18:54:29
(UTC+00:00)

Cosmos 1726 Rocket - Pass Details

Date: 09 April 2020
Orbit: 602 x 630 km, 82.5° (Epoch: 24 May)

Event Time Altitude Azimuth Distance (km) Brightness Sun altitude
Rises 18:55:18 0° 180° (S) 2,884 6.8 -7.8°
Reaches altitude 10° 18:57:31 10° 177° (S) 1,988 5.9 -8.1°
Maximum altitude 19:01:53 65° 96° (E) 690 3.6 -8.8°
Drops below altitude 10° 19:06:19 10° 15° (NNE) 2,018 6.3 -9.5°
Sets 19:08:35 0° 12° (NNE) 2,932 7.2 -9.9°
